TimeEDT,TemperatureF,Dew PointF,Humidity,Sea Level PressureIn,VisibilityMPH,Wind Direction,Wind SpeedMPH,Gust SpeedMPH,PrecipitationIn,Events,Conditions,WindDirDegrees,DateUTC
12:53 AM,37.9,30.0,73,30.31,10.0,Calm,Calm,-,N/A,,Clear,0,2013-03-28 04:53:00
1:53 AM,35.1,30.0,82,30.31,10.0,Calm,Calm,-,N/A,,Clear,0,2013-03-28 05:53:00
2:53 AM,33.1,30.0,89,30.32,10.0,Calm,Calm,-,N/A,,Clear,0,2013-03-28 06:53:00
3:53 AM,33.1,30.0,89,30.30,10.0,Calm,Calm,-,N/A,,Clear,0,2013-03-28 07:53:00
4:53 AM,32.0,30.0,92,30.32,10.0,Calm,Calm,-,N/A,,Clear,0,2013-03-28 08:53:00
5:53 AM,32.0,28.9,88,30.32,10.0,Calm,Calm,-,N/A,,Partly Cloudy,0,2013-03-28 09:53:00
6:53 AM,30.9,28.9,92,30.35,10.0,Calm,Calm,-,N/A,,Partly Cloudy,0,2013-03-28 10:53:00
7:53 AM,30.9,28.9,92,30.36,10.0,Calm,Calm,-,N/A,,Scattered Clouds,0,2013-03-28 11:53:00
8:53 AM,34.0,30.9,89,30.38,10.0,Calm,Calm,-,N/A,,Scattered Clouds,0,2013-03-28 12:53:00
9:53 AM,41.0,30.0,65,30.38,10.0,Calm,Calm,-,N/A,,Scattered Clouds,0,2013-03-28 13:53:00
10:53 AM,46.0,27.0,47,30.39,10.0,NNW,4.6,-,N/A,,Partly Cloudy,340,2013-03-28 14:53:00
11:53 AM,48.9,27.0,43,30.38,10.0,Variable,3.5,-,0.01,,Partly Cloudy,0,2013-03-28 15:53:00
12:53 PM,53.1,27.0,37,30.37,10.0,Calm,Calm,-,N/A,,Partly Cloudy,0,2013-03-28 16:53:00
1:53 PM,55.0,28.0,35,30.34,10.0,ESE,3.5,-,N/A,,Scattered Clouds,110,2013-03-28 17:53:00
2:53 PM,57.9,28.0,32,30.31,10.0,NNE,4.6,-,N/A,,Scattered Clouds,30,2013-03-28 18:53:00
3:53 PM,59.0,28.0,31,30.28,10.0,Calm,Calm,-,N/A,,Mostly Cloudy,0,2013-03-28 19:53:00
4:53 PM,61.0,28.0,29,30.26,10.0,NNW,16.1,25.3,N/A,,Scattered Clouds,330,2013-03-28 20:53:00
5:53 PM,61.0,28.9,30,30.26,10.0,NNW,12.7,-,N/A,,Partly Cloudy,340,2013-03-28 21:53:00
6:53 PM,60.1,28.9,31,30.26,10.0,NW,9.2,-,N/A,,Partly Cloudy,320,2013-03-28 22:53:00
7:53 PM,55.9,30.0,37,30.28,10.0,NNW,9.2,-,N/A,,Partly Cloudy,340,2013-03-28 23:53:00
8:53 PM,52.0,30.9,45,30.30,10.0,NW,4.6,-,N/A,,Clear,320,2013-03-29 00:53:00
9:53 PM,50.0,33.1,52,30.31,10.0,Calm,Calm,-,N/A,,Clear,0,2013-03-29 01:53:00
10:53 PM,48.0,34.0,58,30.32,10.0,Calm,Calm,-,N/A,,Clear,0,2013-03-29 02:53:00
11:53 PM,44.1,35.1,71,30.32,10.0,Calm,Calm,-,N/A,,Clear,0,2013-03-29 03:53:00